RYR75EF LIPZ-LSZH

Flight info

Callsign RYR75EF
Flight time 0h 49m
Altitude 30000
Route ROKIB DCT NAXAV DCT UNIMI L12 MOGTI P66 KPT L856 NEGRA
Aircraft B738/M-SDE2E3FGHIRWXY/LB1

Departure

Time 2026-02-18 21:46
Airport Venice Marco Polo Airport (LIPZ)

Arrival

Time 2026-02-18 22:36
Airport Zürich Airport (LSZH)
Time Latitude Longitude Altitude Speed Heading
2026-02-18 20:57 45.50425 12.34213 8 ft 0 kts 268°
2026-02-18 21:01 45.50488 12.34217 7 ft 0 kts 268°
2026-02-18 21:33 45.50489 12.34245 7 ft 2 kts 259°
2026-02-18 21:33 45.50493 12.34265 7 ft 2 kts 249°
2026-02-18 21:33 45.50500 12.34284 7 ft 2 kts 238°
2026-02-18 21:34 45.50509 12.34301 7 ft 2 kts 227°
2026-02-18 21:34 45.50519 12.34315 7 ft 2 kts 217°
2026-02-18 21:34 45.50531 12.34327 7 ft 2 kts 207°
2026-02-18 21:34 45.50532 12.34328 7 ft 0 kts 206°
2026-02-18 21:36 45.50527 12.34325 7 ft 4 kts 189°
2026-02-18 21:36 45.50433 12.34339 7 ft 16 kts 172°
2026-02-18 21:36 45.50346 12.34353 7 ft 8 kts 179°
2026-02-18 21:37 45.50202 12.34360 9 ft 18 kts 177°
2026-02-18 21:37 45.50089 12.34294 9 ft 18 kts 221°
2026-02-18 21:37 45.49994 12.34172 10 ft 17 kts 222°
2026-02-18 21:38 45.49903 12.34053 9 ft 17 kts 222°
2026-02-18 21:38 45.49810 12.33933 7 ft 18 kts 221°
2026-02-18 21:38 45.49732 12.33833 7 ft 11 kts 221°
2026-02-18 21:38 45.49669 12.33753 7 ft 14 kts 221°
2026-02-18 21:39 45.49582 12.33641 7 ft 13 kts 221°
2026-02-18 21:39 45.49509 12.33610 6 ft 1 kts 137°
2026-02-18 21:44 45.49508 12.33612 6 ft 1 kts 137°
2026-02-18 21:45 45.49441 12.33810 7 ft 7 kts 44°
2026-02-18 21:45 45.49444 12.33813 7 ft 0 kts 43°
2026-02-18 21:46 45.49562 12.33966 7 ft 63 kts 42°
2026-02-18 21:46 45.50109 12.34666 8 ft 144 kts 42°
2026-02-18 21:46 45.50921 12.35725 619 ft 165 kts 44°
2026-02-18 21:46 45.51781 12.36883 1446 ft 181 kts 44°
2026-02-18 21:47 45.52708 12.38140 2164 ft 194 kts 46°
2026-02-18 21:47 45.53528 12.39702 2870 ft 203 kts 69°
2026-02-18 21:47 45.53672 12.41661 3695 ft 203 kts 99°
2026-02-18 21:47 45.53427 12.43650 4509 ft 208 kts 102°
2026-02-18 21:48 45.53183 12.45715 5271 ft 216 kts 100°
2026-02-18 21:48 45.52969 12.47848 6046 ft 222 kts 102°
2026-02-18 21:48 45.52521 12.49932 6794 ft 224 kts 123°
2026-02-18 21:48 45.51453 12.51450 7598 ft 220 kts 153°
2026-02-18 21:49 45.48556 12.52416 9104 ft 217 kts 191°
2026-02-18 21:49 45.47157 12.51771 9901 ft 213 kts 211°
2026-02-18 21:49 45.46073 12.50423 10660 ft 210 kts 237°
2026-02-18 21:50 45.45443 12.48524 11212 ft 221 kts 254°
2026-02-18 21:50 45.45232 12.46293 11734 ft 236 kts 270°
2026-02-18 21:50 45.45667 12.43978 12248 ft 255 kts 296°
2026-02-18 21:50 45.46823 12.41964 12779 ft 273 kts 310°
2026-02-18 21:51 45.48114 12.39911 13244 ft 285 kts 299°
2026-02-18 21:51 45.48954 12.37286 13765 ft 294 kts 285°
2026-02-18 21:51 45.49521 12.34437 14249 ft 307 kts 282°
2026-02-18 21:51 45.50076 12.31410 14666 ft 323 kts 283°
2026-02-18 21:52 45.50686 12.28311 15339 ft 330 kts 284°
2026-02-18 21:52 45.51347 12.25150 16074 ft 335 kts 285°
2026-02-18 21:52 45.52032 12.21960 16838 ft 337 kts 285°
2026-02-18 21:52 45.52726 12.18766 17516 ft 342 kts 285°
2026-02-18 21:53 45.54154 12.12251 18963 ft 347 kts 286°
2026-02-18 21:53 45.54879 12.08939 19671 ft 350 kts 286°
2026-02-18 21:53 45.55601 12.05636 20443 ft 350 kts 285°
2026-02-18 21:54 45.56356 12.02350 21087 ft 353 kts 288°
2026-02-18 21:54 45.57323 11.99174 21754 ft 356 kts 296°
2026-02-18 21:54 45.58691 11.96222 22466 ft 360 kts 304°
2026-02-18 21:54 45.60404 11.93560 23054 ft 366 kts 312°
2026-02-18 21:55 45.62325 11.91183 23652 ft 371 kts 317°
2026-02-18 21:55 45.64482 11.89102 24130 ft 380 kts 323°
2026-02-18 21:55 45.66842 11.87320 24753 ft 385 kts 327°
2026-02-18 21:55 45.69265 11.85684 25247 ft 389 kts 329°
2026-02-18 21:56 45.71742 11.84061 25859 ft 390 kts 329°
2026-02-18 21:56 45.74242 11.82419 26404 ft 393 kts 329°
2026-02-18 21:56 45.76704 11.80785 26905 ft 395 kts 328°
2026-02-18 21:56 45.79222 11.79090 27354 ft 399 kts 328°
2026-02-18 21:57 45.84285 11.75636 28669 ft 396 kts 328°
2026-02-18 21:57 45.86742 11.73952 29455 ft 390 kts 328°
2026-02-18 21:57 45.89167 11.72284 29872 ft 390 kts 328°
2026-02-18 21:58 45.94071 11.68893 29866 ft 392 kts 328°
2026-02-18 21:58 45.99021 11.65602 29849 ft 392 kts 330°
2026-02-18 21:59 46.04192 11.62838 29883 ft 399 kts 335°
2026-02-18 21:59 46.09371 11.60111 29830 ft 392 kts 328°
2026-02-18 22:00 46.14139 11.56439 29805 ft 387 kts 324°
2026-02-18 22:00 46.18850 11.52679 29795 ft 391 kts 325°
2026-02-18 22:01 46.26034 11.47247 29878 ft 389 kts 326°
2026-02-18 22:02 46.30871 11.43679 29873 ft 389 kts 326°
2026-02-18 22:02 46.35709 11.40121 29911 ft 393 kts 326°
2026-02-18 22:03 46.40542 11.36566 29918 ft 389 kts 326°
2026-02-18 22:03 46.45340 11.33003 29914 ft 387 kts 324°
2026-02-18 22:04 46.50217 11.29582 29907 ft 389 kts 328°
2026-02-18 22:04 46.55177 11.26437 29910 ft 391 kts 328°
2026-02-18 22:05 46.62661 11.21712 29909 ft 393 kts 328°
2026-02-18 22:05 46.67629 11.18528 29911 ft 392 kts 328°
2026-02-18 22:06 46.72620 11.15306 29898 ft 389 kts 328°
2026-02-18 22:06 46.77546 11.12104 29817 ft 393 kts 328°
2026-02-18 22:07 46.82529 11.08855 29806 ft 389 kts 328°
2026-02-18 22:07 46.87494 11.05578 29803 ft 394 kts 327°
2026-02-18 22:08 46.92422 11.02252 29810 ft 391 kts 327°
2026-02-18 22:08 46.97393 10.98932 29799 ft 393 kts 328°
2026-02-18 22:09 47.04880 10.94102 29821 ft 391 kts 327°
2026-02-18 22:10 47.09806 10.90820 29853 ft 390 kts 328°
2026-02-18 22:10 47.14785 10.87564 29835 ft 393 kts 327°
2026-02-18 22:11 47.19770 10.84319 29844 ft 392 kts 328°
2026-02-18 22:11 47.24741 10.81050 29894 ft 393 kts 328°
2026-02-18 22:12 47.29729 10.77746 29865 ft 397 kts 328°
2026-02-18 22:12 47.34710 10.74455 29855 ft 393 kts 328°
2026-02-18 22:13 47.41899 10.68731 29827 ft 387 kts 320°
2026-02-18 22:13 47.46341 10.64243 29828 ft 387 kts 318°
2026-02-18 22:14 47.50732 10.59694 29807 ft 387 kts 319°
2026-02-18 22:14 47.55181 10.55152 29802 ft 389 kts 319°
2026-02-18 22:15 47.59612 10.50518 29782 ft 387 kts 318°
2026-02-18 22:15 47.63988 10.45957 29807 ft 391 kts 319°
2026-02-18 22:16 47.68385 10.41246 29725 ft 385 kts 314°
2026-02-18 22:16 47.70264 10.38546 29399 ft 369 kts 305°
2026-02-18 22:16 47.71699 10.35500 28749 ft 362 kts 296°
2026-02-18 22:17 47.73593 10.28640 27357 ft 358 kts 285°
2026-02-18 22:17 47.74241 10.25135 26723 ft 355 kts 278°
2026-02-18 22:17 47.74446 10.21529 26204 ft 349 kts 269°
2026-02-18 22:18 47.74401 10.17950 25791 ft 343 kts 267°
2026-02-18 22:18 47.74272 10.14447 25164 ft 343 kts 266°
2026-02-18 22:18 47.74137 10.10933 24509 ft 344 kts 266°
2026-02-18 22:18 47.74014 10.07365 23863 ft 344 kts 266°
2026-02-18 22:19 47.73902 10.03856 23310 ft 342 kts 266°
2026-02-18 22:19 47.73802 10.00364 22820 ft 340 kts 266°
2026-02-18 22:19 47.73711 9.96851 22212 ft 338 kts 267°
2026-02-18 22:19 47.73634 9.93412 21769 ft 334 kts 267°
2026-02-18 22:20 47.73554 9.89991 21182 ft 334 kts 267°
2026-02-18 22:20 47.73474 9.86555 20661 ft 330 kts 267°
2026-02-18 22:20 47.73392 9.83184 20163 ft 327 kts 267°
2026-02-18 22:20 47.73314 9.79830 19667 ft 324 kts 267°
2026-02-18 22:21 47.73137 9.73176 18567 ft 321 kts 266°
2026-02-18 22:21 47.73047 9.69922 18122 ft 319 kts 267°
2026-02-18 22:21 47.72959 9.66639 17607 ft 317 kts 266°
2026-02-18 22:22 47.72866 9.63359 17016 ft 317 kts 266°
2026-02-18 22:22 47.72771 9.60127 16431 ft 318 kts 266°
2026-02-18 22:22 47.72680 9.56850 15898 ft 316 kts 267°
2026-02-18 22:22 47.72596 9.53627 15413 ft 313 kts 267°
2026-02-18 22:23 47.72502 9.50395 14942 ft 310 kts 266°
2026-02-18 22:23 47.72412 9.47232 14476 ft 306 kts 266°
2026-02-18 22:23 47.72223 9.44115 14014 ft 301 kts 259°
2026-02-18 22:23 47.71527 9.41238 13569 ft 297 kts 241°
2026-02-18 22:24 47.70319 9.38801 13137 ft 293 kts 232°
2026-02-18 22:24 47.68997 9.36505 12697 ft 291 kts 230°
2026-02-18 22:24 47.67700 9.34261 12267 ft 289 kts 230°
2026-02-18 22:24 47.66413 9.31981 11831 ft 287 kts 231°
2026-02-18 22:25 47.63921 9.27440 10957 ft 282 kts 231°
2026-02-18 22:25 47.62698 9.25208 10518 ft 280 kts 230°
2026-02-18 22:25 47.61469 9.22981 10164 ft 274 kts 231°
2026-02-18 22:26 47.60286 9.20818 10004 ft 264 kts 231°
2026-02-18 22:26 47.59068 9.18883 9872 ft 252 kts 220°
2026-02-18 22:26 47.57633 9.17469 9697 ft 243 kts 208°
2026-02-18 22:26 47.56153 9.16307 9433 ft 243 kts 208°
2026-02-18 22:27 47.54658 9.15115 9095 ft 243 kts 210°
2026-02-18 22:27 47.53213 9.13894 8798 ft 240 kts 209°
2026-02-18 22:27 47.51775 9.12676 8519 ft 240 kts 209°
2026-02-18 22:27 47.50303 9.11435 8202 ft 242 kts 208°
2026-02-18 22:28 47.48859 9.10210 7890 ft 240 kts 209°
2026-02-18 22:28 47.47417 9.08974 7624 ft 241 kts 210°
2026-02-18 22:28 47.45919 9.07685 7445 ft 252 kts 209°
2026-02-18 22:28 47.44403 9.06358 7310 ft 254 kts 213°
2026-02-18 22:29 47.42509 9.02350 6980 ft 244 kts 262°
2026-02-18 22:29 47.42592 8.99877 6809 ft 242 kts 275°
2026-02-18 22:29 47.42758 8.97411 6488 ft 241 kts 271°
2026-02-18 22:30 47.42881 8.94956 6221 ft 240 kts 272°
2026-02-18 22:30 47.43042 8.92525 5946 ft 234 kts 274°
2026-02-18 22:30 47.43230 8.90156 5774 ft 228 kts 274°
2026-02-18 22:30 47.43406 8.87878 5554 ft 223 kts 274°
2026-02-18 22:31 47.43572 8.85623 5333 ft 219 kts 274°
2026-02-18 22:31 47.43736 8.83411 5145 ft 212 kts 274°
2026-02-18 22:31 47.43892 8.81313 5013 ft 202 kts 274°
2026-02-18 22:31 47.44041 8.79285 4840 ft 193 kts 274°
2026-02-18 22:32 47.44182 8.77378 4558 ft 182 kts 274°
2026-02-18 22:32 47.44316 8.75563 4262 ft 173 kts 274°
2026-02-18 22:32 47.44440 8.73871 4005 ft 163 kts 275°
2026-02-18 22:32 47.44559 8.72260 3750 ft 151 kts 275°
2026-02-18 22:33 47.44775 8.69357 3317 ft 137 kts 275°
2026-02-18 22:33 47.44879 8.67957 3109 ft 138 kts 275°
2026-02-18 22:33 47.44983 8.66577 2880 ft 133 kts 276°
2026-02-18 22:34 47.45074 8.65231 2706 ft 135 kts 276°
2026-02-18 22:34 47.45173 8.63819 2483 ft 140 kts 277°
2026-02-18 22:34 47.45272 8.62424 2260 ft 138 kts 277°
2026-02-18 22:34 47.45369 8.61033 2055 ft 135 kts 278°
2026-02-18 22:35 47.45477 8.59666 1863 ft 134 kts 276°
2026-02-18 22:35 47.45567 8.58299 1655 ft 135 kts 277°
2026-02-18 22:35 47.45667 8.56916 1446 ft 134 kts 277°
2026-02-18 22:35 47.45760 8.55645 1391 ft 119 kts 277°
2026-02-18 22:36 47.45833 8.54610 1381 ft 82 kts 276°
2026-02-18 22:36 47.45871 8.54070 1384 ft 20 kts 276°
2026-02-18 22:36 47.45881 8.53867 1385 ft 19 kts 263°
2026-02-18 22:36 47.45787 8.53754 1384 ft 19 kts 174°
2026-02-18 22:37 47.45674 8.53994 1387 ft 10 kts 108°
2026-02-18 22:37 47.45652 8.54097 1388 ft 10 kts 108°
2026-02-18 22:38 47.45606 8.54305 1388 ft 10 kts 108°
2026-02-18 22:38 47.45583 8.54411 1388 ft 10 kts 108°
2026-02-18 22:38 47.45560 8.54518 1387 ft 11 kts 108°
2026-02-18 22:39 47.45511 8.54737 1384 ft 10 kts 109°
2026-02-18 22:39 47.45484 8.54854 1381 ft 12 kts 109°
2026-02-18 22:39 47.45454 8.54979 1382 ft 13 kts 110°
2026-02-18 22:39 47.45419 8.55127 1383 ft 19 kts 110°